Probability
2 2 9 19 20 11 3 0 0 0 0 0 0 0 0 0 0 0 1 4 6 7 9 10 10 9 6 5 5 4 3 1 0 0 0 1 4 5 3 1 0 0 0 0 1 2 2 2 2
3 6 13 19 16 7 2 0 0 0 0 0 0 0 0 0 0 0 1 4 6 7 9 11 11 9 8 7 6 5 4 2 1 0 0 0 2 3 2 0 0 0 0 0 1 2 2 1 2
7 11 17 16 9 2 0 0 0 0 0 0 0 0 0 0 0 0 1 3 5 6 8 10 12 12 11 10 8 6 5 3 1 1 1 1 1 2 1 0 0 0 0 0 1 1 1 2 3
14 17 17 10 4 0 0 0 0 0 0 0 0 0 0 0 0 0 0 1 2 3 5 9 12 15 14 12 10 8 5 4 4 3 3 2 2 2 2 1 1 1 1 1 1 1 2 4 5
19 20 15 6 1 0 0 0 0 0 0 0 0 0 0 0 0 0 0 0 1 1 4 7 11 15 15 13 11 9 6 6 7 6 5 4 3 3 3 2 2 2 2 2 3 4 6 6 6
19 18 11 3 0 0 0 0 0 0 0 0 0 0 0 0 0 0 0 0 0 1 4 7 9 12 14 12 10 9 7 7 9 9 7 5 4 3 2 3 3 3 3 4 4 5 7 8 7
15 13 7 2 0 0 0 0 0 0 0 0 0 0 0 0 0 0 0 0 0 1 3 5 7 9 11 11 10 9 7 7 9 10 9 8 6 4 3 3 3 3 4 5 5 5 6 7 7
12 10 5 1 0 0 0 0 0 0 0 0 0 0 1 2 1 1 0 0 0 0 2 4 5 6 7 8 9 9 8 7 8 9 9 8 8 7 5 3 3 4 4 5 5 5 5 5 4
11 8 3 0 0 0 0 0 0 0 0 0 0 1 2 2 2 2 2 1 1 1 2 3 4 4 4 4 6 8 8 7 7 7 7 7 7 7 6 4 5 6 5 4 4 4 4 2 2
6 4 1 0 0 0 0 0 0 0 0 0 1 2 3 2 3 5 5 4 3 2 3 4 5 5 3 2 4 6 7 6 6 6 6 6 6 6 5 6 8 8 6 5 4 3 2 2 1
1 1 0 0 0 0 0 0 0 0 0 0 1 3 3 3 4 7 8 6 4 3 4 5 7 6 4 4 5 6 6 6 6 6 7 7 6 5 5 6 8 8 7 6 5 4 3 2 2
0 0 0 0 0 0 0 0 0 0 0 0 1 3 4 4 5 8 9 8 5 4 4 6 8 8 8 8 7 8 8 6 6 8 9 8 6 4 5 6 7 7 7 6 6 5 4 3 3
0 0 0 0 0 0 0 0 0 0 0 0 2 3 4 3 5 8 9 8 6 5 6 6 7 8 9 10 9 8 7 7 8 10 12 10 7 5 4 6 7 7 6 5 5 5 5 3 2
0 0 0 0 0 0 0 0 0 0 0 0 1 3 4 4 6 8 9 8 6 6 7 6 5 6 8 9 8 6 5 6 9 13 15 12 8 6 6 7 7 5 4 4 3 4 4 3 1
0 0 0 0 0 0 0 1 1 1 0 0 1 3 5 6 8 9 8 7 6 7 7 6 3 4 6 7 5 4 5 6 9 14 17 13 9 8 9 9 7 4 3 3 2 3 4 3 2
0 0 0 0 0 0 0 1 1 1 0 0 2 4 6 7 9 9 8 6 7 8 9 6 4 5 7 6 5 4 5 7 9 12 14 14 12 11 12 11 8 6 5 4 2 3 4 5 6
0 0 0 0 0 0 0 0 0 0 0 0 3 6 8 8 9 9 7 6 8 11 11 7 5 8 8 7 6 6 6 8 10 11 13 15 15 13 13 13 11 8 6 4 2 3 4 5 6
0 0 0 0 0 0 0 0 0 0 0 0 3 8 10 11 10 10 8 7 9 14 16 12 8 9 10 8 8 8 9 11 11 12 14 16 15 13 12 12 11 9 6 4 3 3 4 3 3
0 0 0 0 0 0 1 1 0 0 0 0 3 8 11 12 13 13 12 10 11 16 20 17 13 11 11 11 10 10 11 13 11 11 13 14 14 11 10 11 11 9 7 5 4 3 3 2 1
0 0 0 0 0 1 2 2 1 1 1 1 3 7 9 12 14 16 16 13 13 18 21 19 17 15 13 12 11 8 9 11 10 9 11 12 13 11 9 10 10 9 8 7 5 4 4 2 1
0 0 0 0 0 2 3 3 2 2 2 3 5 8 7 9 13 16 16 15 15 18 19 19 19 17 14 13 11 8 8 9 9 9 10 11 13 12 11 9 9 8 7 8 8 7 8 6 3
0 0 0 0 0 1 3 4 4 4 4 6 9 10 9 9 12 15 15 15 16 16 17 19 20 19 17 16 13 10 10 9 10 10 10 11 13 14 12 11 9 8 7 7 8 10 12 10 8
0 0 0 0 0 0 1 4 6 6 5 7 10 12 12 13 13 13 14 14 14 14 16 19 21 21 20 19 17 14 12 10 10 12 12 12 13 14 14 13 11 10 9 8 9 13 16 15 14
0 0 0 0 1 1 1 4 7 7 6 8 11 13 15 16 14 12 13 14 13 11 14 20 24 24 22 21 19 17 14 12 12 13 15 14 14 15 16 14 13 13 11 11 14 18 20 19 17
0 0 0 0 1 1 1 4 6 6 8 11 14 15 16 16 15 13 15 17 15 11 12 19 26 27 24 22 21 19 17 16 16 16 17 17 16 17 17 14 13 14 13 13 15 19 20 19 17
0 0 0 0 1 1 1 3 5 6 8 13 16 15 13 13 13 12 15 19 18 13 11 18 26 28 25 23 23 22 21 20 20 21 20 19 19 19 19 16 15 15 15 15 15 16 17 16 15
0 0 0 0 0 0 2 4 5 5 7 12 14 14 12 10 8 8 11 17 18 15 14 20 27 31 28 25 25 27 27 26 25 26 24 22 23 23 21 20 19 19 19 18 17 17 16 16 15
1 0 0 0 0 0 3 5 6 6 7 10 13 12 11 9 6 6 10 16 19 19 19 24 32 36 34 30 29 32 35 33 31 31 28 27 28 29 26 22 21 21 21 20 19 18 17 16 14
2 1 0 0 0 0 2 5 7 8 9 11 12 11 10 9 9 11 14 19 22 22 25 30 37 41 39 36 36 40 42 40 37 35 33 33 34 33 29 24 22 21 20 20 20 19 17 15 14
3 2 1 0 0 0 1 4 7 9 10 13 12 10 8 10 12 15 19 21 23 24 27 35 40 41 40 39 42 45 47 45 39 37 36 37 37 36 31 25 22 19 19 20 20 19 16 14 14
Wind_Speed
10 10 9 5 4 2 7 11 12 12 12 12 12 13 15 14 11 9 6 9 11 13 12 12 11 11 10 9 9 9 9 9 9 9 9 9 9 9 9 10 10 10 10 11 10 9 9 9 9
9 11 8 4 2 4 10 11 12 12 10 10 12 14 15 15 12 9 8 8 11 12 11 11 12 11 10 9 9 9 9 9 9 9 9 9 9 9 9 10 10 10 10 10 10 9 8 8 9
11 11 5 3 2 8 11 10 10 10 9 9 12 13 11 10 10 8 8 9 10 11 12 12 13 11 10 8 8 9 9 9 9 9 9 9 9 9 9 9 10 10 10 10 10 9 8 8 8
7 5 4 1 9 12 11 9 9 10 10 11 11 11 11 10 9 9 9 9 11 12 13 13 13 11 10 9 8 8 8 8 9 9 9 9 9 9 9 9 9 10 10 9 9 9 8 8 7
5 3 2 4 11 12 10 9 9 10 11 12 13 14 12 11 11 10 9 9 10 11 13 13 13 12 10 9 8 7 7 8 8 8 8 9 9 9 9 8 8 8 8 8 8 8 8 7 7
3 3 1 6 12 12 11 9 10 11 11 12 12 13 11 8 9 9 9 9 10 11 13 12 13 12 10 9 8 7 6 6 7 7 7 7 8 8 8 7 8 8 8 8 8 7 7 6 6
2 2 2 8 11 11 10 9 11 10 10 11 10 11 9 9 8 9 10 9 9 9 11 11 11 10 10 9 8 7 6 6 6 6 7 7 7 8 7 7 8 8 7 7 7 6 6 6 5
1 0 3 6 10 11 10 9 10 11 11 9 8 9 9 9 9 9 9 9 8 8 8 8 9 8 8 8 9 8 7 6 6 6 6 6 7 8 8 7 7 7 7 6 5 5 5 5 5
2 1 3 6 9 9 8 9 11 11 11 12 13 13 12 11 10 9 8 9 8 7 6 6 7 6 5 7 8 9 8 6 6 6 6 5 4 5 6 7 7 7 6 6 5 5 5 5 5
1 3 7 9 9 9 8 9 9 10 11 13 13 13 12 11 10 8 8 9 8 6 6 6 6 5 3 4 4 4 4 5 4 3 4 3 2 3 5 8 9 7 6 5 5 4 4 3 3
5 5 7 8 9 9 8 9 9 9 10 11 12 11 11 10 9 9 8 8 7 6 6 6 6 4 3 2 2 1 2 3 3 3 3 3 3 2 3 3 5 5 5 3 4 4 2 2 1
6 6 6 7 7 8 9 8 9 11 11 12 12 11 10 9 9 8 7 7 7 6 6 6 6 4 3 3 1 1 1 2 2 3 3 3 2 1 2 2 2 3 2 2 2 2 2 2 2
7 5 6 6 7 8 9 9 9 12 13 13 12 10 9 9 9 7 8 8 7 5 6 6 5 3 2 2 1 1 1 2 3 2 2 2 2 1 2 1 1 1 1 2 2 1 2 1 1
5 4 4 4 6 7 10 8 7 10 11 12 11 9 9 9 9 8 8 7 6 5 5 5 5 4 2 1 1 1 1 2 2 2 3 2 2 1 1 1 1 1 1 2 1 1 2 2 1
2 3 3 4 5 6 9 8 7 7 11 10 10 9 9 9 9 8 7 7 6 5 5 4 5 4 2 1 1 1 1 2 2 3 3 2 2 1 1 1 1 1 1 2 1 1 1 2 2
4 2 2 4 5 4 3 7 7 7 10 9 9 9 9 8 8 8 8 6 6 5 4 2 3 4 2 1 1 1 1 2 2 3 3 2 2 1 1 1 1 1 1 1 2 2 1 1 1
6 2 3 4 4 5 4 6 7 7 9 9 9 9 9 9 8 8 8 7 6 5 4 3 3 3 2 2 1 0 1 1 2 3 2 2 1 1 1 1 2 1 1 1 1 2 1 1 1
2 2 2 3 3 4 5 6 8 7 8 9 8 9 9 9 8 8 8 7 7 5 4 3 3 2 2 2 0 0 1 1 2 2 2 2 1 2 1 1 2 1 1 1 2 2 1 1 0
3 1 2 2 3 4 5 7 9 8 8 8 8 9 9 9 9 9 7 8 7 6 5 4 3 2 1 1 0 0 1 1 1 2 2 3 2 2 2 1 2 1 1 1 1 1 1 1 1
4 0 2 2 2 2 4 7 9 8 8 7 7 8 9 10 10 9 8 7 7 6 5 4 3 3 2 1 1 1 1 1 2 2 3 3 2 2 2 1 1 1 1 1 1 1 0 1 1
5 2 1 1 2 3 4 5 7 9 8 8 8 8 9 11 11 10 9 8 8 7 6 5 4 3 2 1 1 0 1 0 1 2 2 2 2 2 1 2 1 0 1 1 1 1 0 1 0
5 2 4 5 3 3 2 2 5 7 7 7 8 8 9 10 11 10 9 8 8 8 7 5 5 3 2 2 1 1 1 1 1 2 2 2 2 2 2 2 1 0 1 1 1 1 1 1 1
5 5 4 4 4 2 3 2 4 5 6 6 7 8 9 9 10 10 10 9 8 8 8 7 6 4 3 2 2 1 1 1 1 2 2 2 2 2 2 2 1 1 0 1 0 0 1 1 1
7 7 5 4 5 4 4 3 4 4 5 7 8 8 8 8 9 9 9 8 8 8 7 7 7 5 4 3 3 2 2 1 0 1 2 2 2 2 2 2 2 1 1 1 1 1 1 1 1
6 6 4 3 4 4 5 2 4 7 6 6 8 8 8 8 8 9 9 9 7 7 7 7 7 5 5 4 3 3 2 2 2 1 1 2 2 2 2 2 1 1 1 1 1 1 1 1 1
7 8 6 5 3 2 1 3 5 8 7 7 8 8 8 8 7 8 8 8 8 7 6 6 7 5 5 4 3 3 3 2 2 3 2 2 2 2 3 2 2 1 1 1 1 1 2 2 1
7 9 9 7 6 3 1 3 5 7 7 7 9 9 7 7 7 8 9 9 9 8 7 6 6 5 5 4 4 3 4 3 2 2 2 1 1 2 3 3 2 1 0 0 0 1 1 0 0
8 8 6 4 3 4 2 2 1 4 6 7 8 7 6 5 5 7 7 8 8 8 8 7 7 6 4 4 4 4 4 3 3 2 2 2 2 2 2 2 2 1 1 1 1 1 1 1 1
7 8 7 5 4 5 1 1 4 4 4 6 8 6 6 5 5 5 5 6 7 7 7 7 7 6 5 4 3 2 3 3 3 2 2 2 2 3 3 2 2 2 1 1 1 1 1 1 1
8 9 9 6 4 5 4 1 4 4 5 6 7 7 6 5 5 5 5 5 4 5 5 5 5 6 5 4 4 3 2 3 3 3 3 3 3 3 3 3 3 2 2 1 1 1 1 1 1
Wind_Direction
198 209 214 236 242 227 59 61 62 63 61 52 52 63 60 53 60 81 88 89 96 106 112 111 104 98 96 96 94 93 92 91 93 92 90 86 86 86 89 99 104 108 113 115 116 117 119 120 123
225 221 220 243 261 75 64 60 64 62 66 69 63 65 67 66 73 89 89 93 102 109 111 110 110 104 101 97 96 96 93 90 91 93 93 89 88 88 91 99 104 108 111 116 119 122 124 125 127
251 253 253 231 63 66 68 63 73 76 65 71 74 61 59 67 76 88 103 107 102 105 109 113 117 115 113 107 101 99 96 93 94 95 95 93 92 93 93 101 109 111 112 115 120 124 124 129 133
246 244 241 233 71 68 74 75 77 82 71 69 78 75 68 65 78 99 108 109 112 115 115 120 124 123 121 118 110 105 106 105 103 101 98 95 92 96 94 97 106 113 114 115 119 125 125 132 140
240 264 243 86 76 74 73 73 78 76 76 76 81 87 81 74 87 98 105 109 112 113 116 120 128 129 127 125 119 112 111 113 114 111 106 102 98 98 99 99 104 112 118 120 123 127 129 135 143
262 278 334 86 87 82 76 74 76 76 80 87 89 92 90 94 92 97 98 97 105 112 117 124 134 134 132 131 127 124 122 122 123 120 114 112 110 103 105 108 110 112 116 122 127 129 131 138 146
244 304 15 77 88 81 75 74 78 81 78 83 94 94 102 95 92 89 90 92 93 103 116 129 139 139 139 136 133 134 139 137 138 137 130 128 125 117 118 119 120 121 122 126 130 134 142 144 155
193 11 30 68 85 82 82 79 79 81 80 86 91 94 106 102 102 98 95 91 89 88 102 119 131 133 145 148 146 151 152 146 151 155 148 145 140 137 135 131 131 132 133 135 139 143 153 157 167
231 98 54 66 82 86 87 88 87 89 88 75 75 92 104 110 106 103 96 90 81 79 83 95 107 123 134 139 144 161 162 155 155 158 158 157 156 146 147 137 140 142 143 147 153 159 160 165 180
69 58 56 64 84 94 90 89 94 95 89 90 89 97 107 111 105 102 98 93 91 86 79 72 76 81 84 106 130 151 150 149 156 147 151 157 133 122 126 142 152 156 160 160 168 173 173 186 182
63 51 59 70 83 90 89 82 84 96 93 99 106 112 112 108 104 98 95 96 92 89 82 80 68 60 59 68 114 104 124 140 144 129 128 116 115 126 127 142 154 161 170 174 162 175 190 184 167
79 62 64 75 83 87 82 80 83 84 93 106 113 115 111 109 106 104 101 97 96 89 84 79 75 59 43 35 43 120 128 138 122 128 131 124 130 125 129 139 146 157 160 153 146 153 165 146 124
78 79 81 80 88 89 89 79 84 94 102 107 111 112 115 114 107 102 101 99 98 92 88 90 88 78 70 38 333 85 98 105 106 109 110 117 120 117 121 124 115 125 134 138 142 157 141 115 110
92 102 100 104 110 105 94 78 83 106 114 116 120 120 120 115 115 110 105 103 103 96 86 92 97 86 77 62 353 20 73 92 95 96 92 91 92 92 114 114 109 110 117 121 125 132 121 122 110
123 150 137 123 120 114 105 90 103 127 121 123 126 124 120 116 114 114 111 113 112 103 93 103 114 99 77 51 355 82 70 82 95 96 88 84 91 88 103 111 133 130 131 125 125 108 120 135 135
206 201 132 127 122 129 106 107 122 145 134 134 134 132 128 120 123 122 120 117 110 106 99 92 104 110 115 95 7 16 42 74 93 106 107 107 88 75 86 106 115 111 124 136 139 134 128 114 122
215 171 142 128 116 125 119 120 149 155 138 138 140 140 142 139 134 129 129 125 116 111 112 102 84 105 116 109 122 120 85 70 89 104 110 114 102 76 73 68 73 93 82 68 97 99 111 118 130
293 113 120 110 139 125 122 131 151 156 145 145 148 147 150 147 146 139 138 133 126 123 118 117 102 94 105 110 64 13 101 117 113 111 114 112 113 98 77 104 85 75 77 63 60 78 93 113 151
297 67 77 110 167 147 141 145 151 159 158 152 154 154 156 151 149 145 146 142 138 132 129 122 121 108 88 78 126 160 137 157 127 122 123 118 114 110 109 82 110 113 97 99 94 89 129 142 152
295 -0 139 148 186 159 156 147 147 158 164 157 157 159 158 154 154 152 156 154 145 138 137 139 137 127 123 120 236 186 137 162 125 108 117 114 122 122 132 124 128 126 122 104 105 113 138 214 148
283 308 316 215 207 198 165 149 152 160 155 159 164 163 160 161 161 161 164 163 154 152 153 156 146 144 144 161 194 156 146 90 89 113 118 122 128 126 101 115 102 49 109 123 144 151 204 250 216
270 263 246 249 243 222 179 156 171 162 155 167 169 166 165 164 161 163 166 168 165 160 158 149 146 149 155 184 209 179 144 137 134 129 134 144 148 142 133 134 128 95 67 121 204 145 274 256 249
275 272 260 279 288 270 204 190 159 156 162 175 176 166 161 160 158 163 167 169 170 165 162 155 149 156 165 189 194 198 157 169 119 116 139 147 150 156 154 151 149 138 166 147 103 48 327 297 303
286 280 260 271 269 252 212 184 146 149 185 173 164 159 160 159 157 160 161 161 166 164 159 157 154 163 173 187 191 188 188 184 158 139 153 158 146 146 141 153 157 174 180 177 198 227 254 269 312
283 282 269 260 236 238 206 154 129 144 160 146 145 152 155 158 159 160 160 162 161 163 164 155 152 167 175 183 192 187 197 194 189 196 192 176 152 142 152 156 169 186 182 199 210 206 227 268 279
263 267 276 287 279 265 312 97 115 129 128 129 134 138 143 150 151 156 156 156 161 165 160 151 151 164 175 182 189 188 196 207 193 199 206 190 157 151 147 156 171 179 201 219 204 207 205 223 246
261 268 280 282 293 303 4 113 118 117 129 132 122 126 139 143 148 153 158 161 163 165 161 157 151 161 173 183 184 191 196 207 206 182 203 181 136 146 147 158 162 164 153 270 189 162 237 197 247
252 282 290 290 309 275 194 175 147 138 136 126 119 122 123 132 141 147 155 160 162 165 163 160 154 162 174 182 192 192 190 194 201 189 191 173 140 122 136 140 152 147 144 182 161 171 183 167 210
239 260 275 291 283 293 313 112 144 147 127 122 118 116 120 129 126 119 130 146 154 158 160 158 153 161 172 180 186 189 170 181 190 189 183 167 144 146 152 153 167 159 169 177 177 182 198 192 205
249 259 261 266 272 279 286 144 117 136 130 117 112 117 115 110 110 115 115 123 141 158 159 158 160 167 171 174 170 167 170 172 183 181 176 157 151 163 162 169 178 185 174 187 197 211 216 203 184